Regional Weather Roundup
Issued by NWS Upton, NY

Current Version | Previous Version | Text Only | Print | Product List | Glossary On
Versions: 1 2 3 4 5 6 7 8 9 10 11 12 13 14 15 16 17 18 19 20 21 22 23 24 25 26 27 28 29 30 31 32 33 34 35 36 37 38 39 40 41 42 43 44 45 46 47 48 49
000
ASUS41 KOKX 181605
RWROKX

REGIONAL WEATHER ROUNDUP
NATIONAL WEATHER SERVICE NEW YORK NY
1200 PM EDT THU SEP 18 2014

NOTE: "FAIR" INDICATES FEW OR NO CLOUDS BELOW 12,000 FEET WITH NO
SIGNIFICANT WEATHER AND/OR OBSTRUCTIONS TO VISIBILITY.

NYZ071-072-176-178-NJZ106-104-181700-
NEW YORK CITY METRO AREA


CITY           SKY/WX    TMP DP  RH WIND       PRES   REMARKS
CENTRAL PARK   SUNNY     72  47  40 CALM      30.03F
LAGUARDIA APRT MOSUNNY   72  47  40 NW3       30.00F
KENNEDY INTL   MOSUNNY   74  44  34 NE5G17    30.01F
NEWARK/LIBERTY MOSUNNY   74  46  36 VRB5      30.00F
BRNX BOT. GARD   N/A     72  46  40 NW1       30.03S
TETERBORO      SUNNY     73  46  38 N3        29.99F
$$

NYZ177-179-078>081-181700-
LONG ISLAND NEW YORK

CITY           SKY/WX    TMP DP  RH WIND       PRES   REMARKS
FARMINGDALE    SUNNY     73  46  38 VRB3      30.00F
ISLIP          MOSUNNY   72  46  39 VRB3      29.98F
SHIRLEY        SUNNY     73  45  36 N10       30.00F
WESTHAMPTON    SUNNY     73  45  36 N8        30.01S
MONTAUK POINT    N/A     69  50  50 NW6       30.00F
$$

NYZ052-065-067-181700-
HUDSON VALLEY

CITY           SKY/WX    TMP DP  RH WIND       PRES   REMARKS
WHITE PLAINS   MOSUNNY   72  44  36 NW10      30.00F
NEWBURGH       MOSUNNY   66  52  59 CALM      30.03S
MONTGOMERY     MOSUNNY   70  48  45 VRB3      30.01S
POUGHKEEPSIE   SUNNY     69  50  50 VRB3      30.00F
ALBANY         PTSUNNY   65  51  60 W3        30.02F
$$

NJZ001-105-106-008-010-013-015-019>022-104-181700-
NEW JERSEY

CITY           SKY/WX    TMP DP  RH WIND       PRES   REMARKS
NEWARK/LIBERTY MOSUNNY   74  46  36 VRB5      30.00F
TETERBORO      SUNNY     73  46  38 N3        29.99F
CALDWELL       MOSUNNY   71  48  43 VRB5      30.01F
MORRISTOWN     MOSUNNY   72  50  46 CALM      30.01F
SOMERVILLE     NOT AVBL
LINDEN         FAIR      76  49  38 NW5       30.02F
SUSSEX         SUNNY     70  49  47 VRB3      30.02F
ANDOVER          N/A     68  49  50 CALM      30.02F
TRENTON        PTSUNNY   72  50  45 W7        30.01F
MILLVILLE      CLOUDY    74  51  44 NW5       30.01F
ATLANTIC CITY  SUNNY     74  51  44 N9        30.01F
WRIGHTSTOWN    NOT AVBL
TOMS RIVER     SUNNY     72  46  40 CALM      30.01F
BELMAR         MOSUNNY   72  48  43 NW7       30.01S
$$

PAZ047>061-062-071-181700-
EASTERN PENNSYLVANIA

CITY           SKY/WX    TMP DP  RH WIND       PRES   REMARKS
PHILADELPHIA   PTSUNNY   73  52  47 VRB5      30.01F
ALLENTOWN      SUNNY     70  48  45 CALM      30.02F
SCRANTON       SUNNY     67  47  48 W6        30.04S
$$

CTZ002-004>006-009-010-012-RIZ004-006-007-MAZ004-011-015-181700-
SOUTHERN NEW ENGLAND
 IN CT

CITY           SKY/WX    TMP DP  RH WIND       PRES   REMARKS
BRADLEY INTL   MOSUNNY   71  51  49 CALM      29.99F
HARTFORD       SUNNY     69  50  50 VRB6      29.99F
DANBURY        SUNNY     70  46  42 N9        30.02S
WTRBRY/OXFORD  MOSUNNY   66  46  48 N8        30.01F
BRIDGEPORT     SUNNY     69  52  54 S3        30.00F
MERIDEN        SUNNY     71  41  33 NW3       30.00S
NEW HAVEN      MOSUNNY   74  44  34 VRB5      30.00S
CHESTER        FAIR      68  46  45 NW7       30.01S
GROTON         SUNNY     72  48  42 NW12      29.98F
WILLIMANTIC    SUNNY     70  47  43 N9        29.99F

 IN RI

CITY           SKY/WX    TMP DP  RH WIND       PRES   REMARKS
PROVIDENCE     MOSUNNY   72  45  37 NW7       29.98S
BLOCK ISLAND   SUNNY     70  48  46 NW7       30.00R
WESTERLY       SUNNY     71  44  37 VRB5      29.99S

 IN MA

CITY           SKY/WX    TMP DP  RH WIND       PRES   REMARKS
BOSTON         MOSUNNY   72  46  39 VRB7      29.96F
WORCESTER      SUNNY     66  47  50 NW9       30.00S
WESTFIELD      MOSUNNY   69  50  50 VRB3      29.99F
PROVINCETOWN   SUNNY     66  52  59 NW9       29.97F
NANTUCKET      SUNNY     70  45  40 NW13      29.96F
$$

ANZ330-335-338-340-345-350-353-355-181700-
COASTAL MARINE OBSERVATIONS


STATION/POSITION TIME  SKY/WX   TEMP    WIND        PRES    VSBY  WAVE
                                AIR SEA DIR/SP/G                  HT/PER
                 (UTC)          (F)     (DEG/KT/KT) (MB)    (MI)  (FT/S)
NY HARB ENTRANCE 1600            68 70  320/  6/  8 1016.5          4/13
4S FIRE IS       1600               71                N/A           4/13
23SW MTP         1600                                 N/A           3/12
HUDSON CANYON    1600            68 73  340/ 10/ 14 1015.6          4/11
EXECUTION ROCKS  1600            71 72  190/  4/  6   N/A
WESTERN LI SOUND 1600            66     210/  4/  6   N/A           0
CENTRAL LI SOUND 1600            67 71  320/  8/ 10   N/A           1
EASTERN LI SOUND 1500            67 69  230/  4/  6   N/A
ROBBINS REEF     1600            68      70/  3/  4 1014.9
$$


>>>>>>>>>>>>>>>>>>>>>>>>>>>> KEY <<<<<<<<<<<<<<<<<<<<<<<<<<<
>                                                          <
>     SKY/WX - SKY CONDITION/PRESENT WEATHER               <
>     TMP    - TEMPERATURE IN FAHRENHEIT                   <
>     DP     - DEWPOINT IN FAHRENHEIT                      <
>     RH     - RELATIVE HUMIDITY IN PERCENT                <
>     WIND   - DIRECTION AND SPEED IN MPH                  <
>     PRES   - MEAN SEA LEVEL PRESSURE IN INCHES OF HG     <
>     WCI    - WIND CHILL INDEX                            <
>     VSB    - VISIBILITY IN MILES                         <
>     HX     - HEAT INDEX                                  <
>     TC     - TEMPERATURE IN CELSIUS                      <
>     VRB    - VARIABLE WIND DIRECTION                     <
>                                                          <
>>>>>>>>>>>>>>>>>>>>>>>>>>>> KEY <<<<<<<<<<<<<<<<<<<<<<<<<<<





USA.gov is the U.S. government's official web portal to all federal, state and local government web resources and services.